Weather in Fokino

Russia / Primorsky Krai     42°58′14″N   132°24′39″E
temp.,
°C
wind,
m/s
gust,
m/s
humid.,
%
clouds,
%
prec.,
mm/h
press.,
hPa
HPBL,
m
29 may, sun
sun2901:00+13ese2267100 0.0 100026
04:00+11ese2277100 0.0 100233
07:00+13sse1274100 0.0 100450
10:00+19sse135365 0.0 1003405
13:00+21sse354948 0.0 1004690
16:00+19se59517 0.0 1005590
19:00+16se511655 0.0 1005445
22:00+12ese51478100 0.0 1007472
30 may, mon
mon3001:00+12ese51569100 0.0 1007545
04:00+10ese4137499 0.0 1007454
07:00+11ese4107548 0.0 1008371
10:00+16se5955100 0.0 1008742
13:00+18se61050100 0.0 1007906
16:00+17se71150100 0.0 1006848
19:00+15se51254100 0.0 1005699
22:00+12ese3858100 0.0 1007320
31 may, tue
tue3101:00+11se2460100 0.0 1006190
04:00+10nne1271100 0.1 100677
07:00+8nnw2497100 1.2 1006266
10:00+9w1197100 4.1 1007154
13:00+10nnw1295100 0.9 1007276
16:00+13sw227598 1.1 1005779
19:00+12sw338093 0.1 1005486
22:00+9s229644 0.1 1007148
1 june, wed
wed101:00+8sse2495100 0.0 1007281
04:00+8sse2498100 0.3 1007329
07:00+8se2497100 0.1 1007310
10:00+10se239194 0.1 1007398
13:00+14s326945 0.0 1006726
16:00+16s446451 0.0 1005771
19:00+13sse348272 0.0 1005471
22:00+10se229778 0.0 100761
2 june, thu
thu201:00+10ese2297100 0.0 100736
04:00+9ese2397100 0.1 100777
07:00+11ese1393100 0.3 1008194
10:00+14se2382100 0.4 1010488
13:00+17s326696 0.1 1010991
16:00+15sse346950 0.1 1011685
19:00+13sse347431 0.0 1012435
22:00+8sse22965 0.0 101436